BEIDOU 3 (C01)

Last updated on Mon Feb 13 2023 00:03:21 GMT+0000 (Coordinated Universal Time)

1 36287U 10001A 23043.56970103 -.00000268 00000+0 00000+0 0 9996 2 36287 1.9439 52.9013 0002985 281.3283 153.6513 1.00271523 47922
UTC large
Height (km)
Speed (km/s)
/
Latitude / Longitude
Inclination (degrees)
Orbital Period (minutes)
Azimuth
Elevation
Range (km)
Doppler Factor

Next 0 passes for location: London (51.5072 / 0.1276)

Sorry there are no passes over London.